Location: Unspecified
(0.0000°N, 0.0000°E)
Time: 14:13:23
(UTC+00:00)

Vanguard 2 - Pass Details

Date: 24 September 2019
Orbit: 554 x 2937 km, 32.9° (Epoch: 13 October)

Event Time Altitude Azimuth Distance (km) Brightness Sun altitude
Rises 21:33:16 0° 232° (SW) 5,836 12.4 -55.3°
Reaches altitude 10° 21:36:42 10° 231° (SW) 5,071 11.9 -56.2°
Enters shadow 21:45:20 44° 225° (SW) 3,464 10.7 -58.3°
Maximum altitude 21:52:52 82° 143° (SE) 2,929 - -60.2°
Drops below altitude 10° 22:10:33 10° 57° (ENE) 5,484 - -64.6°
Sets 22:14:24 0° 57° (ENE) 6,311 - -65.6°
